Simultaneous Nadir Overpasses (SNOs) Predictions

Prediction of SNOs between LANDSAT-8 and NOAA-19 Satellite Orbit:

Table of predicted SNOs for the next 14.0 days since TLE Epoch: 3/6/2021
Index Date (LANDSAT-8) Time (LANDSAT-8) Lat,Lon (LANDSAT-8) SZA (LANDSAT-8 ) Date (NOAA-19) Time (NOAA-19) Lat,Lon (NOAA-19) SZA (NOAA-19 ) Distance(km) Time Diff (sec)
1 03/07/2021 10:06:22 80.26, 58.09 86.37 03/07/2021 10:05:28 80.27, 57.94 86.35 2.98 54
2 03/07/2021 10:55:49 -80.26,-134.31 93.65 03/07/2021 10:56:29 -80.24,-134.33 93.65 1.85 40
3 03/09/2021 16:29:31 80.27, -37.62 85.52 03/09/2021 16:29:39 80.25, -37.66 85.50 2.55 8
4 03/11/2021 22:03:14 -80.28, 59.00 95.34 03/11/2021 22:02:55 -80.27, 58.86 95.37 3.10 19
5 03/11/2021 22:52:41 80.25,-133.65 84.60 03/11/2021 22:53:51 80.25,-133.60 84.63 0.95 70
6 03/14/2021 03:36:56 80.29, 155.63 83.81 03/14/2021 03:36:04 80.28, 155.49 83.77 2.70 52
7 03/14/2021 04:26:24 -80.25, -37.02 96.26 03/14/2021 04:27:07 -80.26, -36.93 96.24 1.65 43
8 03/16/2021 10:00:05 80.26, 59.57 82.88 03/16/2021 10:00:15 80.28, 59.54 82.90 2.34 10
9 03/18/2021 15:33:48 -80.26, 156.19 97.98 03/18/2021 15:33:32 -80.29, 156.12 97.97 3.09 16



Historial Predications of SNOs between LANDSAT-8 and NOAA-19
